Wind_Speed
16 14 13 12 11 11 10 9 8 9 12 13 13 13 14 14 15 15 16 16 15 13 10 8 7 10 11 13 15 16 15 14 12 11 11 10 10 9 8 7 6 5 4 4
15 14 14 14 12 11 11 10 9 11 13 14 14 14 15 15 16 15 15 14 14 12 9 8 7 8 10 14 15 14 15 14 13 11 11 11 11 10 9 8 6 6 5 4
14 14 17 16 14 11 10 9 10 13 15 16 17 16 16 16 16 15 14 13 11 9 8 6 5 6 8 13 14 14 14 14 13 13 13 13 11 10 9 8 7 6 5 5
15 17 17 16 15 13 11 9 12 15 17 18 19 19 15 15 15 14 12 10 8 7 6 4 4 6 8 13 14 15 14 14 14 14 14 13 12 11 10 8 7 6 6 6
15 18 18 17 14 13 12 12 14 17 18 19 19 19 15 14 14 12 10 8 7 5 4 3 4 6 9 12 14 15 14 14 15 15 14 14 13 12 10 9 8 7 7 6
16 19 20 18 17 15 14 14 17 18 19 19 18 19 14 13 12 10 7 6 5 3 2 4 5 7 9 12 13 14 14 14 15 15 15 14 13 12 10 9 8 7 7 7
17 19 19 20 20 18 16 17 18 18 18 18 18 17 13 12 9 7 5 4 4 2 2 5 7 7 10 12 13 14 14 15 15 15 14 14 13 12 10 9 9 8 8 7
18 19 19 20 20 18 18 18 19 19 18 18 17 16 10 9 8 6 4 3 3 3 4 5 6 8 10 12 13 14 14 15 15 15 15 14 13 12 10 10 9 8 8 7
19 19 20 21 21 20 20 20 20 20 20 19 17 14 10 8 8 6 3 2 3 4 4 5 8 9 10 12 14 14 14 14 15 15 15 14 13 12 11 10 9 8 8 7
19 20 22 23 24 23 23 23 23 22 21 20 17 12 10 8 6 4 3 2 4 5 5 5 8 9 10 11 13 14 14 14 15 14 14 13 12 12 11 10 9 9 8 7
23 23 22 25 25 25 26 25 24 24 23 21 18 13 10 8 6 5 4 4 5 5 5 5 7 9 10 11 12 13 13 13 13 13 13 12 12 12 11 11 10 9 9 7
26 26 25 26 27 26 26 25 24 25 25 22 20 14 11 8 7 6 6 6 6 7 7 7 7 9 11 12 11 11 11 11 12 12 13 13 12 12 12 11 10 10 10 9
29 29 28 28 29 28 27 27 27 26 25 23 21 15 12 11 10 9 8 7 7 8 8 8 8 8 10 11 11 11 11 11 11 12 13 13 12 12 12 11 11 10 10 10
30 30 29 28 28 28 28 28 28 26 26 24 20 16 14 13 12 10 9 9 9 9 9 9 9 9 10 10 10 10 11 11 11 11 12 12 12 12 12 12 12 11 12 12
30 30 30 29 28 29 28 28 29 28 26 23 20 16 15 15 14 12 11 11 10 10 9 10 10 10 11 10 10 10 11 11 12 12 12 12 13 13 13 13 13 13 13 13
28 27 27 27 28 29 28 27 28 27 25 24 22 17 15 15 13 12 12 12 12 11 11 11 11 10 11 12 12 12 12 12 13 14 14 14 14 14 14 15 15 15 15 15
27 27 28 28 29 28 28 26 27 26 24 23 22 17 16 14 12 11 11 12 13 12 10 10 10 11 11 12 12 13 13 13 14 15 15 15 15 15 16 16 16 17 17 17
25 27 28 27 27 28 25 25 25 25 24 23 21 20 17 14 12 12 12 12 12 12 11 11 11 12 12 12 12 13 13 14 14 15 16 16 16 17 17 18 18 19 18 18
23 24 26 26 27 26 24 24 24 24 22 21 21 20 18 15 14 11 11 11 12 13 13 13 13 13 13 13 13 14 14 14 15 16 16 17 18 18 18 19 19 20 20 20
20 21 23 24 24 24 21 20 22 23 22 21 20 18 18 18 16 12 12 12 13 14 14 15 15 15 15 15 15 15 15 15 16 16 17 18 19 20 20 21 21 21 22 22
18 19 21 23 23 22 20 19 20 21 20 20 19 18 18 19 17 15 14 13 15 15 15 16 16 16 16 16 16 16 17 17 18 19 19 20 21 21 21 21 22 22 22 23
17 18 19 20 21 20 20 20 21 19 20 20 20 20 19 19 18 16 15 15 16 16 16 16 17 17 18 18 17 17 17 18 20 20 21 21 22 23 23 23 24 24 24 25
17 18 17 18 18 17 19 20 20 21 20 20 20 20 20 19 18 17 16 16 17 17 18 18 18 19 19 19 19 19 19 20 21 22 23 23 24 24 25 26 27 27 27 27
17 17 17 16 17 17 18 19 19 20 21 21 21 20 20 20 19 18 18 18 18 19 19 20 20 21 21 20 20 21 21 22 22 23 24 25 26 27 27 27 28 28 28 29
16 17 16 16 16 16 17 18 19 19 20 23 23 22 22 20 18 18 19 18 19 19 19 20 21 21 22 22 22 23 24 24 24 25 26 26 28 29 30 30 30 29 29 30
15 16 16 15 14 14 15 16 18 19 19 19 19 19 18 19 19 19 19 18 18 19 19 20 21 21 22 23 23 24 25 25 25 26 26 27 27 29 30 31 31 32 32 33
Wind_Direction
246 241 239 236 230 228 231 245 275 298 299 305 311 311 308 310 309 314 314 310 311 305 296 284 263 255 231 214 205 206 207 211 212 211 210 206 200 196 196 197 192 196 197 198
239 233 227 223 222 227 235 252 275 293 293 296 298 301 308 310 310 310 313 307 306 302 294 291 269 247 224 209 205 205 200 201 200 202 200 195 191 190 190 183 178 176 175 175
233 225 224 219 217 220 238 258 275 285 285 288 291 291 300 304 306 306 308 307 306 295 288 283 259 232 208 193 191 192 194 196 195 192 188 187 184 183 180 176 173 168 171 166
225 224 224 220 217 218 231 247 268 276 280 284 287 290 291 298 298 300 302 304 306 301 295 284 250 219 192 180 180 183 186 189 185 182 183 181 177 179 179 178 175 168 163 157
221 221 223 220 218 225 240 247 261 270 276 279 286 293 292 295 297 295 300 302 296 290 284 266 234 201 182 176 177 178 181 184 182 181 180 180 180 179 179 178 178 175 168 163
222 221 224 220 217 224 237 248 258 264 273 278 284 289 286 290 295 290 290 298 291 264 258 219 197 183 172 170 175 177 180 181 178 179 181 181 180 179 178 177 178 176 170 169
223 219 224 224 221 222 231 246 256 261 268 278 281 285 285 286 284 282 282 276 277 244 217 196 189 180 173 174 175 175 177 177 175 177 180 181 182 182 180 181 181 178 177 179
233 222 223 225 228 230 234 243 254 263 270 274 277 282 282 286 274 271 277 266 240 205 179 175 171 171 173 176 175 174 174 175 177 179 180 182 183 182 184 182 183 184 186 189
242 231 223 226 231 236 241 245 250 258 267 273 280 283 274 281 271 269 259 209 190 181 175 171 166 166 166 172 174 172 174 176 177 178 181 182 184 184 185 186 190 192 196 201
244 236 226 226 230 236 241 245 248 251 262 269 278 283 279 277 269 252 220 189 172 176 182 183 173 169 169 169 172 174 177 181 182 183 186 188 187 188 191 196 200 199 205 213
241 243 232 229 232 239 239 244 248 250 256 266 273 279 284 279 264 250 222 199 172 170 178 186 185 179 174 173 176 177 179 183 187 189 191 192 196 201 203 204 207 209 218 229
243 244 240 234 237 240 242 247 250 252 256 260 266 273 274 268 273 248 216 198 188 179 176 181 181 182 180 180 183 184 185 188 193 198 202 205 208 210 208 211 214 222 231 240
244 245 245 241 240 242 246 247 250 252 253 258 263 269 269 264 271 251 224 204 199 189 181 183 182 183 186 188 192 194 193 195 200 204 208 211 211 210 213 218 225 233 239 247
246 246 246 245 246 247 249 247 248 251 252 255 258 259 257 258 262 247 226 215 206 198 192 193 194 193 194 195 197 200 202 203 204 207 208 208 211 215 222 228 234 240 246 252
246 247 246 247 247 247 246 245 247 251 251 250 252 253 251 251 250 242 226 214 208 204 201 202 204 204 203 203 204 206 208 208 211 214 217 219 220 225 232 237 241 246 250 256
244 246 246 248 248 245 244 243 245 249 247 248 248 250 250 247 241 235 226 217 213 210 206 206 207 210 211 211 212 214 217 219 222 224 226 227 230 235 240 244 248 253 256 261
244 246 247 247 247 246 244 241 242 242 243 245 245 247 247 241 234 228 225 222 220 211 209 209 209 213 216 217 219 219 223 227 230 231 233 235 238 243 246 250 253 256 259 263
247 247 248 249 246 245 244 241 238 236 239 245 242 235 236 233 229 228 226 224 219 215 217 218 217 219 220 222 223 225 228 231 233 235 239 243 247 250 252 253 255 257 260 265
244 246 247 247 246 245 243 240 237 236 236 239 237 230 232 234 233 230 226 221 217 220 223 225 226 224 224 226 227 229 231 233 236 239 242 246 250 252 254 256 258 260 264 267
238 239 242 243 243 244 238 234 233 234 234 234 233 229 232 238 235 226 224 223 226 226 227 229 230 230 227 228 231 233 235 238 241 244 247 249 251 254 256 259 261 264 266 268
241 238 240 242 243 243 235 232 234 234 229 229 234 235 237 238 236 228 226 231 235 229 228 230 231 230 230 231 234 238 242 244 248 250 253 254 256 257 258 262 265 268 269 272
244 241 241 242 241 240 236 234 234 233 231 234 237 238 238 234 230 231 229 233 234 232 230 229 229 232 234 236 239 243 247 250 253 255 256 258 260 260 263 267 268 269 271 274
249 246 246 245 240 236 233 232 232 234 238 239 238 238 239 236 227 226 231 233 234 232 232 231 232 237 240 241 245 248 248 250 255 256 259 261 262 263 266 269 269 271 273 275
250 247 246 246 237 237 236 229 232 237 238 238 237 238 237 234 230 232 233 233 234 236 235 235 236 240 245 248 249 254 254 256 259 261 263 264 265 264 265 267 270 271 273 275
253 249 247 250 244 240 236 235 236 237 239 235 235 238 235 232 232 235 231 233 237 238 238 240 240 242 245 249 253 256 259 261 264 267 268 269 268 266 268 269 270 272 274 278
249 248 248 250 245 238 234 235 235 236 234 230 232 229 226 229 236 237 232 233 236 238 241 243 243 245 247 251 255 258 260 262 265 269 271 272 274 272 271 271 273 274 275 278
Height
5853 5855 5856 5856 5857 5857 5857 5857 5857 5857 5857 5856 5855 5854 5853 5852 5850 5848 5845 5842 5839 5837 5835 5834 5834 5835 5835 5838 5841 5845 5848 5852 5855 5858 5860 5862 5864 5867 5869 5870 5872 5873 5873 5874
5850 5851 5852 5852 5853 5854 5854 5854 5854 5854 5854 5853 5852 5851 5850 5849 5847 5845 5843 5840 5837 5834 5833 5832 5832 5832 5832 5836 5839 5843 5846 5850 5853 5856 5858 5860 5863 5865 5867 5869 5870 5871 5872 5873
5845 5848 5847 5848 5849 5850 5851 5852 5852 5852 5852 5851 5850 5849 5848 5847 5844 5842 5841 5838 5835 5832 5831 5830 5830 5830 5830 5834 5838 5842 5845 5848 5851 5853 5856 5859 5862 5864 5866 5868 5869 5870 5871 5872
5840 5842 5843 5844 5845 5846 5847 5849 5849 5849 5849 5848 5848 5846 5846 5844 5842 5840 5838 5836 5833 5831 5830 5829 5829 5829 5830 5833 5837 5840 5843 5846 5849 5852 5855 5858 5860 5863 5865 5867 5869 5870 5871 5872
5836 5838 5838 5840 5842 5843 5844 5845 5846 5846 5845 5845 5844 5843 5843 5842 5840 5838 5836 5833 5832 5830 5829 5828 5828 5828 5830 5833 5836 5839 5842 5845 5848 5851 5854 5857 5860 5862 5864 5866 5868 5869 5870 5871
5832 5833 5834 5835 5837 5839 5840 5841 5842 5842 5842 5841 5841 5840 5839 5839 5837 5835 5834 5832 5830 5829 5828 5827 5827 5828 5830 5832 5835 5838 5841 5844 5847 5850 5853 5856 5859 5861 5863 5865 5867 5868 5869 5870
5827 5829 5830 5831 5832 5834 5836 5837 5838 5837 5838 5838 5837 5836 5836 5835 5834 5833 5831 5830 5828 5827 5826 5826 5827 5829 5830 5832 5835 5838 5841 5844 5846 5849 5852 5855 5858 5860 5862 5864 5865 5867 5868 5869
5821 5824 5826 5827 5829 5830 5832 5833 5834 5834 5834 5834 5833 5832 5834 5833 5831 5830 5828 5827 5827 5826 5826 5826 5827 5829 5831 5832 5835 5838 5840 5843 5846 5849 5852 5854 5857 5859 5861 5862 5864 5865 5867 5868
5816 5819 5822 5823 5825 5826 5827 5828 5830 5830 5830 5830 5830 5830 5830 5830 5829 5827 5826 5824 5824 5825 5826 5826 5827 5829 5831 5833 5835 5837 5840 5843 5845 5848 5851 5853 5855 5857 5859 5861 5862 5864 5865 5866
5811 5814 5817 5819 5820 5821 5823 5824 5825 5826 5826 5826 5827 5826 5827 5827 5826 5825 5824 5824 5823 5824 5825 5826 5827 5829 5831 5832 5834 5837 5839 5842 5845 5847 5849 5852 5854 5856 5858 5859 5861 5862 5863 5864
5805 5808 5812 5813 5814 5816 5818 5819 5819 5820 5822 5823 5823 5826 5825 5824 5823 5823 5823 5823 5823 5823 5824 5825 5826 5828 5830 5832 5834 5837 5839 5841 5843 5846 5848 5850 5852 5854 5856 5857 5859 5860 5861 5862
5799 5802 5804 5807 5809 5811 5813 5814 5815 5817 5817 5819 5820 5824 5822 5821 5821 5821 5822 5822 5822 5822 5823 5825 5826 5827 5829 5832 5834 5836 5838 5840 5842 5844 5846 5848 5850 5852 5854 5855 5857 5858 5858 5859
5794 5796 5798 5801 5805 5806 5807 5809 5810 5811 5812 5814 5815 5820 5819 5818 5818 5819 5820 5820 5821 5821 5822 5824 5826 5827 5829 5830 5832 5834 5836 5838 5840 5842 5844 5846 5848 5850 5851 5853 5854 5855 5855 5856
5788 5789 5792 5794 5796 5799 5800 5802 5804 5806 5807 5809 5811 5814 5815 5815 5816 5816 5817 5818 5819 5820 5821 5822 5824 5826 5828 5830 5831 5833 5835 5837 5839 5840 5842 5844 5846 5847 5849 5850 5851 5851 5852 5852
5782 5783 5785 5787 5789 5791 5793 5796 5798 5800 5802 5804 5806 5808 5810 5811 5812 5812 5813 5815 5817 5818 5819 5821 5822 5824 5826 5828 5830 5831 5833 5835 5837 5839 5840 5842 5843 5845 5846 5846 5847 5848 5848 5848
5775 5776 5779 5781 5782 5784 5787 5790 5792 5794 5796 5798 5800 5803 5805 5806 5807 5808 5809 5812 5814 5816 5817 5819 5820 5822 5824 5826 5828 5829 5831 5833 5834 5836 5837 5839 5840 5841 5842 5843 5843 5844 5844 5844
5769 5770 5772 5774 5776 5777 5780 5783 5785 5788 5790 5792 5795 5799 5800 5801 5802 5803 5806 5808 5811 5813 5814 5816 5818 5820 5821 5823 5825 5826 5828 5830 5831 5832 5834 5835 5836 5837 5838 5839 5839 5839 5839 5839
5762 5763 5765 5767 5771 5772 5777 5777 5778 5781 5785 5787 5790 5793 5794 5796 5798 5799 5802 5804 5807 5809 5811 5813 5814 5816 5818 5820 5821 5823 5824 5826 5828 5829 5830 5831 5832 5833 5833 5834 5834 5834 5834 5833
5756 5757 5759 5761 5763 5766 5770 5771 5773 5776 5779 5782 5784 5787 5789 5791 5793 5796 5798 5800 5803 5805 5807 5809 5810 5812 5814 5816 5818 5819 5821 5822 5824 5825 5826 5827 5827 5828 5828 5828 5828 5828 5828 5827
5750 5751 5754 5755 5757 5759 5765 5766 5767 5772 5775 5777 5778 5781 5783 5786 5789 5792 5794 5796 5798 5801 5803 5804 5806 5808 5810 5812 5814 5815 5817 5818 5819 5820 5821 5821 5822 5822 5822 5822 5822 5821 5821 5821
5745 5746 5748 5749 5751 5754 5758 5760 5763 5768 5771 5772 5774 5776 5779 5782 5786 5787 5789 5791 5793 5796 5798 5800 5802 5804 5806 5808 5809 5811 5812 5814 5814 5815 5816 5816 5816 5816 5816 5816 5815 5815 5814 5814
5740 5741 5743 5744 5746 5751 5753 5755 5759 5762 5765 5767 5769 5771 5774 5777 5780 5783 5785 5787 5789 5791 5793 5795 5797 5799 5801 5803 5805 5806 5807 5808 5808 5809 5809 5809 5809 5809 5809 5809 5808 5808 5807 5807
5735 5737 5738 5740 5744 5745 5747 5750 5753 5756 5759 5761 5764 5767 5769 5771 5774 5777 5780 5783 5784 5786 5788 5790 5792 5794 5795 5797 5798 5800 5800 5801 5801 5802 5802 5802 5802 5802 5802 5802 5801 5800 5800 5799
5731 5732 5734 5735 5737 5739 5742 5744 5747 5751 5753 5756 5759 5762 5764 5766 5769 5772 5776 5778 5779 5781 5783 5785 5786 5788 5789 5790 5791 5793 5793 5794 5794 5795 5795 5795 5794 5794 5794 5794 5793 5792 5792 5791
5727 5728 5730 5731 5733 5734 5737 5739 5742 5745 5747 5749 5752 5754 5757 5760 5763 5766 5769 5771 5773 5775 5777 5779 5781 5782 5784 5785 5786 5787 5787 5787 5788 5788 5788 5787 5786 5786 5786 5785 5784 5784 5783 5782
5722 5723 5725 5726 5728 5730 5732 5734 5736 5739 5741 5744 5747 5749 5751 5755 5758 5760 5762 5764 5767 5769 5771 5772 5774 5776 5777 5778 5778 5779 5779 5780 5780 5780 5780 5779 5779 5778 5777 5776 5776 5774 5774 5772